Regional Weather Roundup
Issued by NWS

Home | Current Version | Previous Version | Text Only | Print | Product List | Glossary On
Versions: 1 2 3 4 5 6 7 8 9 10 11 12 13 14 15 16 17 18 19 20 21 22 23 24 25 26 27
000
ASUS44 KJAN 220210
RWRMS

MISSISSIPPI HOURLY WEATHER ROUNDUP
NATIONAL WEATHER SERVICE JACKSON MS
800 PM CST TUE FEB 21 2017

NOTE: "FAIR: INDICATES FEW OR NO CLOUDS BELOW 12,000 FEET WITH NO
SIGNIFICANT WEATHER AND/OR OBSTRUCTIONS TO VISIBILITY.

MSZ001>002-007>008-010>013-018>021-025>028-034>036-220300-
NORTHWEST MISSISSIPPI

CITY           SKY/WX    TMP DP  RH WIND       PRES   REMARKS
BATESVILLE     FAIR      59  58  96 CALM      29.88S
CLEVELAND      FAIR      58  58 100 CALM      29.87R
GREENWOOD      PTCLDY    59  56  89 CALM      29.86S
GREENVILLE     CLEAR     56  53  90 CALM      29.86S
OXFORD         LGT RAIN  57  57 100 E3        29.90S
TUNICA         CLOUDY    61  59  94 NE5       29.88S
WINONA         CLOUDY    59  59  99 CALM      29.87R
$$

MSZ003>006-009-014>017-022>024-029>033-037>039-220300-
NORTHEAST MISSISSIPPI

CITY           SKY/WX    TMP DP  RH WIND       PRES   REMARKS
COLUMBUS AFB   CLOUDY    60  59  98 E6        29.87S
CORINTH        CLOUDY    61  57  88 E5        29.89F
GOLDN TRIANGLE CLOUDY    61  55  82 SE9       29.85R
TUPELO         HVY RAIN  60  58  92 CALM      29.89S FOG
$$

MSZ040-058-220300-
CENTRAL MISSISSIPPI

CITY           SKY/WX    TMP DP  RH WIND       PRES   REMARKS
JACKSON INTL   CLEAR     57  54  89 CALM      29.85R
JACKSON HAWKNS CLEAR     58  54  86 CALM      29.86R
MADISON        FAIR     N/A N/A N/A CALM      29.86R
MERIDIAN KEY   CLOUDY    59  59 100 CALM      29.87S
MERIDIAN NAS   NOT AVBL
VICKSBURG VKS  MOCLDY    61  54  77 CALM      29.84S
$$

MSZ059>079-220300-
SOUTH MISSISSIPPI

CITY           SKY/WX    TMP DP  RH WIND       PRES   REMARKS
BROOKHAVEN     FAIR     N/A N/A N/A CALM      29.87S
COLUMBIA       FAIR      55 N/A N/A E3        29.88S
HATTIESBURG    CLEAR     57  56  96 CALM      29.86S
LAUREL         FAIR      56  56 100 CALM      29.86S
MCCOMB         CLEAR     57  52  83 CALM      29.86R
NATCHEZ        MOCLDY    57  54  88 CALM      29.87S
PINE BELT      CLEAR     55  52  88 CALM      29.88S
$$

MSZ080>082-220300-
COASTAL MISSISSIPPI

CITY           SKY/WX    TMP DP  RH WIND       PRES   REMARKS
BAY ST LOUIS   PTCLDY    57  55  94 CALM      29.85S
BILOXI         CLEAR     61  59  94 CALM      29.84F
PASCAGOULA     FOG       55  54  96 CALM      29.86R VSB 1/2
GULFPORT       CLEAR     60  58  92 CALM      29.84F
$$

LAZ007>009-015>016-023>026-220300-
NORTHEAST LOUISIANA

CITY           SKY/WX    TMP DP  RH WIND       PRES   REMARKS
BASTROP        FAIR      56  55  98 CALM      29.87S
TALLULAH/VBURG CLOUDY    61  55  81 CALM      29.86S
VIDALIA        CLOUDY    59  57  93 CALM      29.86S
$$




USA.gov is the U.S. government's official web portal to all federal, state and local government web resources and services.